TimeAKDT,TemperatureF,Dew PointF,Humidity,Sea Level PressureIn,VisibilityMPH,Wind Direction,Wind SpeedMPH,Gust SpeedMPH,PrecipitationIn,Events,Conditions,WindDirDegrees,DateUTC
12:16 AM,19.4,12.2,74,30.15,10.0,Calm,Calm,-,N/A,,Clear,0,2013-04-18 08:16:00
12:36 AM,19.4,10.4,68,30.15,10.0,Calm,Calm,-,N/A,,Clear,0,2013-04-18 08:36:00
12:56 AM,19.4,10.4,68,30.15,10.0,Calm,Calm,-,N/A,,Clear,0,2013-04-18 08:56:00
1:16 AM,17.6,10.4,73,30.16,10.0,Calm,Calm,-,N/A,,Clear,0,2013-04-18 09:16:00
1:36 AM,17.6,12.2,79,30.16,10.0,Calm,Calm,-,N/A,,Clear,0,2013-04-18 09:36:00
1:56 AM,17.6,10.4,73,30.17,10.0,Calm,Calm,-,N/A,,Clear,0,2013-04-18 09:56:00
2:16 AM,15.8,10.4,79,30.17,10.0,ENE,3.5,-,N/A,,Clear,60,2013-04-18 10:16:00
2:36 AM,15.8,12.2,86,30.18,10.0,Calm,Calm,-,N/A,,Clear,0,2013-04-18 10:36:00
2:56 AM,15.8,8.6,73,30.18,10.0,Calm,Calm,-,N/A,,Clear,0,2013-04-18 10:56:00
3:16 AM,14.0,10.4,86,30.18,10.0,Calm,Calm,-,N/A,,Clear,0,2013-04-18 11:16:00
3:36 AM,15.8,8.6,73,30.18,10.0,Calm,Calm,-,N/A,,Clear,0,2013-04-18 11:36:00
3:56 AM,12.2,8.6,85,30.18,10.0,Calm,Calm,-,N/A,,Clear,0,2013-04-18 11:56:00
4:16 AM,14.0,8.6,79,30.18,10.0,Calm,Calm,-,N/A,,Clear,0,2013-04-18 12:16:00
4:36 AM,14.0,10.4,86,30.18,10.0,Calm,Calm,-,N/A,,Clear,0,2013-04-18 12:36:00
4:56 AM,14.0,8.6,79,30.18,10.0,Calm,Calm,-,N/A,,Clear,0,2013-04-18 12:56:00
5:16 AM,12.2,10.4,92,30.18,10.0,Calm,Calm,-,N/A,,Clear,0,2013-04-18 13:16:00
5:36 AM,12.2,8.6,85,30.17,10.0,Calm,Calm,-,N/A,,Clear,0,2013-04-18 13:36:00
5:56 AM,12.2,6.8,79,30.17,10.0,Calm,Calm,-,N/A,,Clear,0,2013-04-18 13:56:00
6:16 AM,10.4,6.8,85,30.17,10.0,Calm,Calm,-,N/A,,Clear,0,2013-04-18 14:16:00
6:36 AM,12.2,10.4,92,30.18,10.0,Calm,Calm,-,N/A,,Clear,0,2013-04-18 14:36:00
6:56 AM,10.4,3.2,73,30.18,10.0,Calm,Calm,-,N/A,,Clear,0,2013-04-18 14:56:00
7:16 AM,10.4,6.8,85,30.17,10.0,NE,3.5,-,N/A,,Clear,50,2013-04-18 15:16:00
7:36 AM,12.2,8.6,85,30.17,10.0,ENE,4.6,-,N/A,,Clear,70,2013-04-18 15:36:00
7:56 AM,14.0,10.4,86,30.17,10.0,ENE,3.5,-,N/A,,Clear,70,2013-04-18 15:56:00
8:16 AM,15.8,10.4,79,30.17,10.0,Calm,Calm,-,N/A,,Clear,0,2013-04-18 16:16:00
8:36 AM,19.4,12.2,74,30.18,10.0,Calm,Calm,-,N/A,,Clear,0,2013-04-18 16:36:00
8:56 AM,23.0,12.2,63,30.17,10.0,Calm,Calm,-,N/A,,Clear,0,2013-04-18 16:56:00
9:16 AM,23.0,12.2,63,30.18,10.0,Calm,Calm,-,N/A,,Clear,0,2013-04-18 17:16:00
9:36 AM,26.6,12.2,55,30.17,10.0,NE,5.8,-,N/A,,Clear,40,2013-04-18 17:36:00
9:56 AM,28.4,12.2,51,30.17,10.0,NE,6.9,-,N/A,,Clear,50,2013-04-18 17:56:00
10:16 AM,28.4,10.4,47,30.17,10.0,NE,8.1,-,N/A,,Clear,50,2013-04-18 18:16:00
10:36 AM,30.2,10.4,44,30.17,10.0,ENE,9.2,-,N/A,,Clear,60,2013-04-18 18:36:00
10:56 AM,30.2,10.4,44,30.17,10.0,NNE,10.4,-,N/A,,Clear,30,2013-04-18 18:56:00
11:16 AM,30.2,12.2,47,30.17,10.0,North,6.9,-,N/A,,Clear,360,2013-04-18 19:16:00
11:36 AM,30.2,12.2,47,30.16,10.0,ENE,4.6,-,N/A,,Clear,60,2013-04-18 19:36:00
11:56 AM,33.8,12.2,41,30.16,10.0,North,6.9,-,N/A,,Clear,10,2013-04-18 19:56:00
12:36 PM,33.8,12.2,41,30.15,10.0,NNE,8.1,-,N/A,,Clear,20,2013-04-18 20:36:00
12:56 PM,35.6,10.4,35,30.15,10.0,NNE,9.2,-,N/A,,Clear,30,2013-04-18 20:56:00
1:16 PM,35.6,12.2,38,30.15,10.0,NNE,6.9,-,N/A,,Clear,30,2013-04-18 21:16:00
1:36 PM,35.6,12.2,38,30.14,10.0,NE,8.1,-,N/A,,Clear,50,2013-04-18 21:36:00
1:56 PM,35.6,12.2,38,30.14,10.0,North,5.8,-,N/A,,Clear,10,2013-04-18 21:56:00
2:16 PM,35.6,10.4,35,30.14,10.0,NNE,4.6,-,N/A,,Clear,30,2013-04-18 22:16:00
2:36 PM,35.6,12.2,38,30.14,10.0,NNE,8.1,-,N/A,,Clear,20,2013-04-18 22:36:00
2:56 PM,37.4,10.4,33,30.14,10.0,North,6.9,-,N/A,,Clear,10,2013-04-18 22:56:00
3:16 PM,37.4,12.2,36,30.14,10.0,NNW,5.8,-,N/A,,Clear,330,2013-04-18 23:16:00
3:36 PM,37.4,10.4,33,30.14,10.0,NE,4.6,-,N/A,,Clear,50,2013-04-18 23:36:00
3:56 PM,37.4,10.4,33,30.14,10.0,NE,6.9,-,N/A,,Clear,50,2013-04-18 23:56:00
4:16 PM,37.4,12.2,36,30.13,10.0,NE,3.5,-,N/A,,Clear,40,2013-04-19 00:16:00
4:36 PM,39.2,12.2,33,30.12,10.0,NNE,6.9,-,N/A,,Clear,20,2013-04-19 00:36:00
4:56 PM,39.2,12.2,33,30.12,10.0,NE,5.8,-,N/A,,Clear,40,2013-04-19 00:56:00
5:16 PM,39.2,12.2,33,30.11,10.0,North,4.6,-,N/A,,Clear,10,2013-04-19 01:16:00
5:36 PM,39.2,12.2,33,30.10,10.0,North,5.8,-,N/A,,Clear,350,2013-04-19 01:36:00
5:56 PM,39.2,12.2,33,30.10,10.0,North,4.6,-,N/A,,Clear,350,2013-04-19 01:56:00
6:16 PM,39.2,12.2,33,30.10,10.0,North,8.1,-,N/A,,Clear,10,2013-04-19 02:16:00
6:36 PM,39.2,12.2,33,30.10,10.0,North,6.9,-,N/A,,Clear,350,2013-04-19 02:36:00
6:56 PM,39.2,12.2,33,30.10,10.0,North,5.8,-,N/A,,Clear,10,2013-04-19 02:56:00
7:36 PM,39.2,12.2,33,30.10,10.0,North,4.6,-,N/A,,Clear,360,2013-04-19 03:36:00
7:56 PM,37.4,17.6,45,30.10,10.0,West,11.5,-,N/A,,Clear,260,2013-04-19 03:56:00
8:16 PM,35.6,17.6,48,30.10,10.0,WNW,9.2,-,N/A,,Clear,290,2013-04-19 04:16:00
8:36 PM,35.6,19.4,52,30.11,10.0,West,8.1,-,N/A,,Clear,280,2013-04-19 04:36:00
8:56 PM,33.8,17.6,52,30.11,10.0,West,8.1,-,N/A,,Clear,270,2013-04-19 04:56:00
9:16 PM,33.8,17.6,52,30.12,10.0,West,6.9,-,N/A,,Clear,270,2013-04-19 05:16:00
9:36 PM,32.0,17.6,55,30.12,10.0,West,6.9,-,N/A,,Clear,270,2013-04-19 05:36:00
9:56 PM,30.2,17.6,60,30.13,10.0,WNW,4.6,-,N/A,,Clear,290,2013-04-19 05:56:00
10:16 PM,30.2,15.8,55,30.13,10.0,Calm,Calm,-,N/A,,Clear,0,2013-04-19 06:16:00
10:36 PM,26.6,15.8,64,30.13,10.0,Calm,Calm,-,N/A,,Clear,0,2013-04-19 06:36:00
10:56 PM,26.6,15.8,64,30.13,10.0,Calm,Calm,-,N/A,,Clear,0,2013-04-19 06:56:00
11:16 PM,24.8,15.8,69,30.14,10.0,Calm,Calm,-,N/A,,Clear,0,2013-04-19 07:16:00
11:36 PM,24.8,15.8,69,30.14,10.0,Calm,Calm,-,N/A,,Clear,0,2013-04-19 07:36:00
11:56 PM,24.8,15.8,69,30.14,10.0,Calm,Calm,-,N/A,,Clear,0,2013-04-19 07:56:00